Weather History for Fort Morgan, CO

Change the Weather History Date:

Sunday, September 1, 2013

  Actual Average (KAKO) Record (KAKO)
Temperature  
Mean Temperature 72 °F 69 °F  
Max Temperature 83 °F 83 °F 98 °F (1995)
Min Temperature 60 °F 55 °F 40 °F (1952)
Degree Days  
Heating Degree Days 0    
Month to date heating degree days  
Cooling Degree Days 6    
Month to date cooling degree days  
Growing Degree Days 22 (Base 50)    
Moisture  
Dew Point 50 °F    
Average Humidity 49    
Maximum Humidity 69    
Minimum Humidity 27    
Precipitation  
Precipitation 0.00 in 0.05 in 1.23 in (1951)
Month to date precipitation 0.05  
Year to date precipitation 13.54  
Sea Level Pressure  
Sea Level Pressure 30.19 in    
Wind  
Wind Speed 11 mph (ESE)    
Max Wind Speed 17 mph    
Max Gust Speed 23 mph    
Visibility 10 miles    
Events      
T = Trace of Precipitation, MM = Missing Value Source: NWS Daily Summary

Daily Weather History Graph

Daily Weather History Graph

Search for Another Location

Airport:

Trip Planner

Search our weather history database for the weather conditions in past years. The results will help you decide how hot, cold, wet, or windy it might be!

Date:

Astronomy

Sep. 01, 2013 Rise Set
Actual Time 6:22 AM MDT 7:26 PM MDT
Civil Twilight 5:54 AM MDT 7:54 PM MDT
Nautical Twilight 5:21 AM MDT 8:27 PM MDT
Astronomical Twilight 4:46 AM MDT 9:02 PM MDT
Moon 2:46 AM MDT (9/1) 5:05 PM MDT (9/1)
Length of Visible Light 13h 59m
Length of Day
13h 03m
Waning Crescent, 13% of the Moon is Illuminated
Sep 1
Waning Crescent
Sep 5
New
Sep 12
First Quarter
Sep 19
Full
Sep 26
Last Quarter

Hourly Weather History & Observations

Time (MDT) Temp. Dew Point Humidity Pressure Visibility Wind Dir Wind Speed Gust Speed Precip Events Conditions
12:15 AM 70.5 °F 52.2 °F 52% 30.13 in 10.0 mi NNE 15.0 mph 20.7 mph N/A   Clear
12:35 AM 70.2 °F 53.1 °F 55% 30.14 in 10.0 mi NE 17.3 mph - N/A   Clear
12:55 AM 69.8 °F 54.0 °F 57% 30.14 in 10.0 mi NE 15.0 mph 23.0 mph N/A   Clear
1:15 AM 69.3 °F 54.7 °F 60% 30.15 in 10.0 mi NE 13.8 mph 19.6 mph N/A   Clear
1:35 AM 68.9 °F 55.4 °F 62% 30.14 in 10.0 mi NE 16.1 mph 20.7 mph N/A   Clear
1:55 AM 68.4 °F 55.8 °F 64% 30.14 in 10.0 mi NE 13.8 mph 19.6 mph N/A   Clear
2:15 AM 68.0 °F 55.8 °F 65% 30.15 in 10.0 mi NE 12.7 mph - N/A   Scattered Clouds
2:35 AM 67.1 °F 55.0 °F 65% 30.15 in 10.0 mi NNE 11.5 mph - N/A   Scattered Clouds
2:55 AM 66.4 °F 54.9 °F 66% 30.14 in 10.0 mi NNE 13.8 mph - N/A   Scattered Clouds
3:15 AM 66.2 °F 54.5 °F 66% 30.15 in 10.0 mi NNE 11.5 mph 18.4 mph N/A   Clear
3:35 AM 65.8 °F 53.8 °F 65% 30.15 in 10.0 mi NE 12.7 mph - N/A   Mostly Cloudy
3:55 AM 64.8 °F 53.2 °F 66% 30.15 in 10.0 mi NE 9.2 mph - N/A   Scattered Clouds
4:15 AM 63.5 °F 52.7 °F 68% 30.16 in 10.0 mi NE 5.8 mph - N/A   Scattered Clouds
4:35 AM 63.0 °F 52.2 °F 68% 30.18 in 10.0 mi NNE 6.9 mph - N/A   Mostly Cloudy
4:55 AM 61.9 °F 51.1 °F 68% 30.18 in 10.0 mi North 6.9 mph - N/A   Scattered Clouds
5:15 AM 61.7 °F 50.9 °F 68% 30.18 in 10.0 mi North 9.2 mph - N/A   Clear
5:35 AM 61.2 °F 50.5 °F 68% 30.19 in 10.0 mi North 6.9 mph - N/A   Clear
5:55 AM 60.6 °F 50.0 °F 68% 30.19 in 10.0 mi North 8.1 mph - N/A   Clear
6:15 AM 60.3 °F 50.0 °F 69% 30.20 in 10.0 mi North 8.1 mph - N/A   Scattered Clouds
6:35 AM 62.8 °F 50.2 °F 63% 30.21 in 10.0 mi North 8.1 mph - N/A   Overcast
6:55 AM 63.7 °F 50.0 °F 61% 30.22 in 10.0 mi North 6.9 mph - N/A   Overcast
7:15 AM 64.4 °F 49.8 °F 59% 30.22 in 10.0 mi North 8.1 mph - N/A   Overcast
7:35 AM 64.9 °F 50.0 °F 58% 30.23 in 10.0 mi North 6.9 mph - N/A   Overcast
7:55 AM 66.2 °F 50.0 °F 56% 30.23 in 10.0 mi NE 6.9 mph - N/A   Overcast
8:15 AM 66.2 °F 50.4 °F 57% 30.24 in 10.0 mi NE 5.8 mph - N/A   Overcast
8:35 AM 67.8 °F 50.0 °F 53% 30.24 in 10.0 mi NE 8.1 mph - N/A   Overcast
8:55 AM 68.4 °F 46.6 °F 46% 30.24 in 10.0 mi ENE 9.2 mph - N/A   Overcast
9:15 AM 69.8 °F 47.7 °F 45% 30.25 in 10.0 mi NE 8.1 mph - N/A   Mostly Cloudy
9:35 AM 68.5 °F 47.5 °F 47% 30.26 in 10.0 mi East 6.9 mph - N/A   Mostly Cloudy
9:55 AM 70.3 °F 46.2 °F 42% 30.26 in 10.0 mi ESE 6.9 mph - N/A   Scattered Clouds
10:15 AM 70.3 °F 45.0 °F 40% 30.26 in 10.0 mi ESE 8.1 mph - N/A   Mostly Cloudy
10:35 AM 72.9 °F 45.9 °F 38% 30.26 in 10.0 mi SE 8.1 mph - N/A   Mostly Cloudy
10:55 AM 74.1 °F 45.0 °F 35% 30.26 in 10.0 mi SE 8.1 mph - N/A   Mostly Cloudy
11:15 AM 73.2 °F 45.3 °F 37% 30.26 in 10.0 mi ESE 8.1 mph - N/A   Scattered Clouds
11:35 AM 75.2 °F 45.0 °F 34% 30.25 in 10.0 mi ESE 9.2 mph - N/A   Mostly Cloudy
11:55 AM 76.3 °F 44.1 °F 32% 30.25 in 10.0 mi ESE 9.2 mph 16.1 mph N/A   Scattered Clouds
12:15 PM 77.2 °F 44.2 °F 31% 30.25 in 10.0 mi SE 8.1 mph - N/A   Scattered Clouds
12:35 PM 77.9 °F 44.1 °F 30% 30.23 in 10.0 mi SE 11.5 mph - N/A   Clear
12:55 PM 79.0 °F 44.1 °F 29% 30.22 in 10.0 mi SE 10.4 mph - N/A   Clear
1:15 PM 79.2 °F 44.4 °F 29% 30.22 in 10.0 mi SSE 6.9 mph 16.1 mph N/A   Clear
1:35 PM 80.1 °F 45.1 °F 29% 30.21 in 10.0 mi SE 8.1 mph - N/A   Clear
1:55 PM 81.3 °F 45.3 °F 28% 30.20 in 10.0 mi ESE 6.9 mph - N/A   Clear
2:15 PM 82.0 °F 45.5 °F 28% 30.20 in 10.0 mi East 8.1 mph 17.3 mph N/A   Clear
2:35 PM 81.7 °F 45.3 °F 28% 30.19 in 10.0 mi SSE 8.1 mph 17.3 mph N/A   Clear
2:55 PM 82.2 °F 45.7 °F 28% 30.17 in 10.0 mi SE 8.1 mph 17.3 mph N/A   Clear
3:15 PM 82.8 °F 46.8 °F 28% 30.17 in 10.0 mi South 11.5 mph 17.3 mph N/A   Clear
3:35 PM 82.9 °F 46.4 °F 28% 30.17 in 10.0 mi SSE 10.4 mph - N/A   Clear
3:55 PM 82.8 °F 46.2 °F 28% 30.16 in 10.0 mi SSE 9.2 mph 16.1 mph N/A   Clear
4:15 PM 83.1 °F 45.9 °F 27% 30.15 in 10.0 mi SSE 11.5 mph 16.1 mph N/A   Clear
4:35 PM 82.9 °F 45.5 °F 27% 30.15 in 10.0 mi SE 10.4 mph 20.7 mph N/A   Clear
4:55 PM 83.1 °F 46.0 °F 27% 30.15 in 10.0 mi SE 10.4 mph - N/A   Clear
5:15 PM 82.8 °F 46.4 °F 28% 30.15 in 10.0 mi SE 8.1 mph - N/A   Clear
5:35 PM 82.6 °F 47.1 °F 29% 30.15 in 10.0 mi SE 10.4 mph - N/A   Clear
5:55 PM 81.9 °F 47.5 °F 30% 30.15 in 10.0 mi SE 9.2 mph - N/A   Clear
6:15 PM 81.0 °F 49.1 °F 33% 30.15 in 10.0 mi SE 6.9 mph - N/A   Clear
6:35 PM 80.2 °F 50.2 °F 35% 30.14 in 10.0 mi South 9.2 mph - N/A   Clear
6:55 PM 77.4 °F 52.7 °F 42% 30.15 in 10.0 mi South 10.4 mph - N/A   Clear
7:15 PM 75.2 °F 54.0 °F 47% 30.15 in 10.0 mi South 9.2 mph - N/A   Clear
7:35 PM 73.6 °F 54.0 °F 50% 30.15 in 10.0 mi SSE 8.1 mph - N/A   Clear
7:55 PM 72.5 °F 54.5 °F 53% 30.15 in 10.0 mi SSE 8.1 mph - N/A   Clear
8:15 PM 71.4 °F 54.3 °F 55% 30.15 in 10.0 mi SE 8.1 mph - N/A   Clear
8:35 PM 70.2 °F 54.5 °F 57% 30.17 in 10.0 mi SSE 5.8 mph - N/A   Clear
8:55 PM 69.3 °F 53.8 °F 58% 30.17 in 10.0 mi SSE 8.1 mph - N/A   Clear
9:15 PM 69.1 °F 53.8 °F 58% 30.17 in 10.0 mi SE 8.1 mph - N/A   Clear
9:35 PM 68.0 °F 53.8 °F 60% 30.17 in 10.0 mi SSE 8.1 mph - N/A   Clear
9:55 PM 67.8 °F 53.6 °F 60% 30.18 in 10.0 mi SSE 6.9 mph - N/A   Clear
10:15 PM 67.5 °F 53.2 °F 60% 30.18 in 10.0 mi SSE 6.9 mph - N/A   Clear
10:35 PM 67.5 °F 53.2 °F 60% 30.19 in 10.0 mi SSE 8.1 mph - N/A   Clear
10:55 PM 67.1 °F 53.1 °F 61% 30.19 in 10.0 mi SSE 6.9 mph - N/A   Clear
11:15 PM 66.6 °F 53.2 °F 62% 30.18 in 10.0 mi SE 4.6 mph - N/A   Clear
11:35 PM 66.7 °F 53.1 °F 61% 30.18 in 10.0 mi SE 8.1 mph - N/A   Clear
11:55 PM 66.4 °F 52.9 °F 62% 30.18 in 10.0 mi SE 8.1 mph - N/A   Clear